CARTOSAT-2B

Last updated on Fri Oct 04 2024 00:02:25 GMT+0000 (Coordinated Universal Time)

1 36795U 10035A 24277.54743274 .00004370 00000+0 60135-3 0 9998 2 36795 97.8481 333.0521 0012642 51.4349 308.7993 14.78730558767981
UTC large
Height (km)
Speed (km/s)
/
Latitude / Longitude
Inclination (degrees)
Orbital Period (minutes)
Azimuth
Elevation
Range (km)
Doppler Factor

Next 0 passes for location: London (51.5072 / 0.1276)

Sorry there are no passes over London.